Temp
21 20 21 21 21 21 22 22 22 22 22 22 22 22 22 22 21 21 21 21 22 22 22 22 22 22 22 22 22 22 22 22 22 22 22 22 22 22 22 22 22 22 22 22 22 22 22 22 22 22 22 22 22 22 22 22 21 21 21 21 22 22 22 22 22 22 22 21 21 21 21 21 21 21 21 21 21 21 21 21 21 21 21 21 21
21 20 21 21 21 22 22 22 23 23 22 22 22 22 22 22 22 21 22 22 22 22 22 22 22 22 22 22 22 22 22 22 22 22 22 22 22 22 22 22 22 22 22 22 22 22 22 22 22 22 22 22 22 21 21 21 21 21 21 22 22 22 22 22 21 22 22 21 21 21 21 21 21 21 21 21 21 21 21 21 21 21 21 21 21
21 21 21 21 21 21 22 23 23 23 22 22 22 22 22 22 22 22 22 22 22 22 22 22 22 22 22 22 22 22 22 22 22 22 22 22 21 22 22 22 22 21 21 22 22 22 22 22 22 22 22 22 22 21 21 21 21 21 21 22 22 21 22 22 21 21 21 21 21 21 21 21 21 21 21 21 21 21 21 21 21 21 21 21 21
21 21 21 21 21 22 22 23 23 22 22 22 22 22 22 22 22 22 22 22 22 22 22 22 22 22 22 22 22 22 22 22 22 22 22 21 21 22 22 22 22 21 22 22 22 22 22 22 22 22 22 22 22 21 21 21 21 21 22 22 22 22 21 21 21 21 21 21 21 21 21 21 21 21 21 21 21 21 21 21 21 21 21 21 21
21 21 21 21 21 22 22 23 23 22 22 22 22 22 22 22 22 22 22 22 22 22 22 22 22 22 22 22 22 22 22 22 22 22 21 21 21 22 21 22 21 21 22 22 22 22 22 22 22 22 22 22 22 21 21 21 21 21 22 22 22 22 22 21 21 21 21 21 21 21 21 21 21 21 21 21 21 21 21 21 21 21 21 21 21
21 21 21 21 21 22 22 23 22 22 22 22 22 22 21 22 22 22 22 22 22 22 22 22 22 22 22 22 22 22 22 21 21 21 21 21 21 21 21 21 21 21 21 21 21 22 22 22 21 22 22 22 22 22 21 21 21 21 22 22 22 22 22 21 21 21 21 21 21 21 21 21 21 21 21 21 21 21 21 21 21 21 21 21 21
21 21 21 21 22 22 22 23 22 22 22 22 22 22 22 22 22 22 22 22 22 22 22 22 22 22 22 22 22 22 22 22 22 22 21 21 21 21 21 21 21 21 21 21 22 22 22 21 21 22 22 22 22 22 21 21 21 21 22 22 22 22 22 21 21 21 21 21 21 21 21 21 21 21 21 21 21 21 21 21 21 21 21 21 21
21 22 22 22 22 22 22 22 22 22 22 22 22 22 22 22 22 22 22 22 22 22 22 22 22 22 22 22 22 22 22 22 22 21 21 21 21 21 21 21 20 21 21 21 21 21 21 21 21 22 22 22 21 22 22 21 21 21 22 22 22 21 21 21 21 21 21 21 21 21 21 21 20 20 21 21 21 21 21 21 21 21 21 21 21
21 22 22 22 22 22 22 22 22 22 22 22 22 22 22 22 22 22 22 22 22 22 22 22 22 21 22 21 21 22 22 22 21 21 21 21 21 21 21 21 21 21 21 21 21 21 21 21 22 22 22 22 21 21 21 21 21 21 22 22 22 21 21 21 21 21 21 21 21 21 21 20 20 20 21 21 21 21 21 21 21 20 21 21 21
22 22 22 22 22 22 22 22 22 22 22 22 22 22 22 22 22 22 22 22 22 22 22 22 22 22 22 21 21 21 22 22 22 21 21 21 21 21 21 21 21 21 21 22 21 21 22 22 22 21 21 22 21 21 21 21 22 22 21 22 21 21 21 21 21 21 21 21 21 21 20 21 20 20 21 21 21 21 21 21 21 21 21 21 21
22 22 22 22 22 22 22 22 22 22 22 22 22 22 22 22 22 22 22 22 22 22 22 22 22 22 21 21 21 21 21 21 21 21 21 21 21 21 21 21 21 21 22 22 22 21 21 22 22 22 21 22 22 22 22 22 21 21 21 21 21 21 21 21 20 20 20 21 20 20 20 21 21 20 21 21 21 21 21 21 21 21 21 21 21
22 21 21 22 22 22 22 22 22 22 22 22 22 22 22 22 22 22 22 22 22 22 22 22 21 21 21 21 22 22 21 21 21 21 21 22 22 22 21 21 22 22 22 22 22 22 22 22 22 22 22 22 22 22 22 22 21 21 21 21 21 21 21 21 20 20 21 21 21 21 21 21 21 21 21 21 21 21 21 21 21 21 21 21 21
22 21 22 22 22 22 22 22 22 22 22 22 22 22 22 22 22 22 22 22 22 22 22 22 21 21 21 21 21 22 22 21 21 21 21 21 22 22 21 21 21 22 22 22 22 21 22 22 22 21 22 22 22 22 22 22 22 22 21 21 21 21 21 21 21 21 21 21 21 21 21 21 21 21 21 21 21 21 21 21 21 21 21 21 20
22 22 22 22 22 22 22 22 22 22 22 22 22 22 22 22 22 22 21 21 21 21 21 21 21 21 21 21 21 21 21 21 21 22 21 21 21 22 21 21 21 22 22 22 21 21 21 21 21 21 22 22 22 22 22 22 22 22 21 21 21 21 21 21 21 21 21 21 21 21 21 21 21 21 21 21 21 21 21 21 21 21 21 20 20
22 22 21 21 22 22 22 22 22 22 22 22 22 22 22 22 22 22 21 21 21 21 21 21 21 21 22 22 22 21 21 21 21 21 21 22 22 22 22 21 21 21 22 21 21 21 21 21 21 21 22 22 22 22 22 22 22 22 21 21 21 21 21 21 21 22 22 21 21 21 21 21 21 21 21 21 21 21 21 21 21 20 20 20 20
22 21 21 21 22 22 22 22 22 22 22 22 22 22 21 21 22 22 21 21 21 21 22 22 21 21 22 22 22 22 21 21 22 22 22 22 22 22 22 21 21 21 21 21 21 21 21 21 21 22 22 22 22 22 22 22 22 21 21 21 21 21 22 22 22 22 22 22 21 21 21 21 21 21 21 21 21 21 21 20 20 20 20 20 20
21 21 21 21 22 22 22 22 22 22 22 22 22 22 21 21 21 21 21 21 22 22 22 22 22 22 21 22 22 22 21 21 22 22 21 21 22 22 22 21 21 21 21 21 21 21 21 21 21 22 22 22 22 22 22 22 22 22 21 21 21 21 22 22 22 22 22 22 21 21 21 21 21 21 21 21 21 21 20 20 20 20 20 20 20
21 21 21 21 22 22 22 22 22 22 22 22 22 21 21 22 21 21 21 21 22 22 22 22 22 22 22 21 21 22 21 22 22 22 21 21 22 22 22 22 21 21 21 22 22 22 21 21 21 22 22 22 22 22 22 22 22 22 22 21 21 22 22 22 22 22 22 22 21 21 21 21 21 21 21 21 21 21 21 20 20 20 20 20 20
21 21 21 22 22 22 22 22 22 22 22 22 21 21 21 22 22 21 22 22 22 22 22 22 22 22 22 21 22 22 21 21 22 22 21 22 22 22 22 22 22 22 22 22 22 22 22 22 22 22 22 22 22 22 22 22 22 22 22 22 21 22 22 22 22 22 22 22 22 21 21 21 21 21 21 21 21 21 21 21 21 21 21 20 20
21 21 21 22 22 22 22 22 22 22 22 22 21 21 21 22 22 22 22 22 22 22 22 22 21 22 22 21 22 21 21 21 22 21 22 22 22 22 22 22 22 22 22 22 22 22 23 23 23 23 23 23 23 22 22 22 22 22 22 22 22 22 22 23 22 22 22 22 22 21 21 21 21 21 21 21 21 21 21 21 21 21 21 20 20
21 21 22 22 22 22 22 22 22 22 21 21 21 21 21 22 22 21 22 22 22 22 21 21 21 22 22 22 22 21 21 21 22 21 21 22 22 22 22 22 22 22 22 22 23 23 23 23 23 23 23 23 23 23 22 22 22 22 22 22 22 22 22 22 22 22 22 22 22 21 21 21 21 21 21 20 20 21 21 21 21 21 20 20 20
22 21 22 22 22 22 22 22 22 22 21 21 21 21 21 22 21 21 21 22 22 21 21 21 21 22 22 22 22 21 21 21 22 22 22 22 22 22 22 22 22 22 22 23 23 23 23 23 23 23 23 23 23 23 23 23 22 22 22 22 22 22 22 22 23 22 22 22 22 22 21 21 21 21 21 21 21 21 21 21 20 20 20 20 20
22 22 22 22 22 22 22 22 22 21 21 21 21 21 21 22 21 21 21 21 22 21 21 21 21 22 22 22 22 21 22 22 22 22 22 22 22 22 22 22 22 22 22 23 23 23 23 23 23 23 24 24 23 23 23 23 23 22 23 22 22 22 22 22 23 22 22 22 22 22 21 21 21 21 21 21 21 21 21 21 20 20 20 20 20
22 22 22 22 22 22 22 22 21 21 21 21 21 21 22 21 21 21 21 21 22 22 22 21 22 22 22 22 21 22 22 22 22 22 22 22 22 22 22 22 22 23 23 23 23 23 23 23 23 23 23 23 23 24 23 23 23 23 23 23 23 23 23 23 23 23 22 22 22 22 21 21 21 21 21 21 21 21 21 21 20 20 20 20 20
23 22 22 22 22 22 22 22 21 21 22 22 22 21 21 21 21 21 21 22 22 22 22 22 22 22 22 21 21 21 22 22 22 22 22 22 22 22 23 23 23 23 23 24 24 24 24 24 24 23 23 24 24 24 24 24 23 23 23 23 23 23 23 23 23 23 22 22 22 22 22 22 21 21 21 21 21 21 21 21 20 20 20 20 20
23 22 22 22 22 22 22 22 22 22 22 22 22 22 22 21 21 21 21 22 22 22 22 22 22 22 22 21 21 21 22 22 22 23 23 23 23 23 23 23 23 23 23 24 24 23 23 23 24 24 24 24 24 24 24 24 23 23 23 23 23 23 23 23 23 23 23 22 22 22 22 22 22 22 21 21 21 21 20 21 21 20 20 20 20
23 22 22 22 22 22 22 22 22 22 22 22 22 22 22 22 22 22 22 22 22 22 22 22 22 22 22 22 21 21 22 22 22 23 23 23 23 23 23 23 23 23 23 23 23 23 23 23 24 24 24 24 24 24 24 24 24 23 23 23 23 23 24 24 23 23 23 23 22 22 22 22 22 22 21 21 21 21 21 21 21 21 20 20 20
23 22 22 22 22 22 22 22 22 22 22 22 22 22 22 22 22 22 22 22 22 22 22 22 22 22 22 22 22 22 22 22 23 23 23 23 23 23 23 23 23 23 23 23 23 23 24 24 24 24 24 24 24 25 25 25 24 24 24 23 23 24 24 24 24 24 23 23 23 23 22 22 22 22 21 21 20 21 21 21 21 21 20 20 20
23 23 23 23 22 22 22 22 23 23 22 22 23 23 22 22 22 22 22 22 22 22 22 22 22 22 22 22 22 23 22 23 23 23 23 23 23 23 23 23 23 23 23 23 23 24 24 24 24 24 24 24 25 25 25 25 25 25 25 24 24 24 24 24 24 24 24 23 23 23 23 23 22 22 22 21 21 21 21 21 21 20 20 20 20
23 23 23 23 23 22 22 22 22 22 22 23 23 23 22 22 22 22 23 23 22 22 22 22 22 22 22 22 22 23 23 23 23 23 23 23 23 23 23 23 23 23 23 24 24 24 24 24 24 24 25 25 25 25 25 25 25 25 25 25 24 24 24 24 24 24 24 24 24 24 23 23 23 23 23 23 22 22 22 21 21 21 21 21 20
24 23 23 23 23 23 23 23 22 22 23 23 23 23 23 23 23 23 23 23 23 23 23 22 22 22 22 22 22 23 23 23 23 23 23 23 23 23 23 23 23 24 24 24 24 24 24 24 24 24 25 25 25 25 25 25 26 26 26 25 25 25 25 24 24 24 25 25 25 24 24 24 24 24 24 24 23 23 22 22 21 21 21 21 21
24 24 24 23 23 23 23 23 23 23 23 23 23 24 23 23 23 23 23 23 23 23 23 23 22 22 22 22 22 23 23 23 23 23 23 23 23 23 23 24 24 24 24 24 24 24 24 24 24 25 25 25 26 26 26 26 26 26 26 25 25 25 25 25 25 25 24 25 25 24 25 25 24 24 24 24 24 23 23 23 22 22 22 21 21
24 24 24 23 23 23 23 24 24 24 24 24 24 24 24 24 23 23 23 23 23 23 23 23 23 23 22 22 22 23 23 23 23 23 23 23 23 23 23 24 24 24 24 24 24 24 24 24 25 25 25 25 26 26 26 26 26 26 26 26 25 25 25 25 25 25 25 25 25 25 25 25 25 24 24 24 24 24 24 23 23 23 23 23 22
24 24 24 24 23 23 24 24 24 24 24 24 24 24 24 24 24 24 24 24 23 23 23 23 23 23 23 23 23 23 23 23 23 23 23 23 24 24 24 24 24 24 24 24 24 24 24 25 25 25 25 26 26 26 26 26 26 26 26 26 26 26 25 25 25 25 25 25 25 25 25 25 25 25 24 24 24 24 24 24 24 24 23 23 23
25 24 24 24 24 24 24 24 24 24 24 24 24 24 24 24 24 24 24 24 24 24 24 23 23 24 23 23 23 23 23 23 23 23 24 24 24 24 24 24 24 24 24 24 24 24 25 25 25 25 26 26 26 26 26 26 26 26 26 26 26 26 26 26 26 25 25 25 25 25 25 25 25 25 25 24 24 25 25 25 24 24 24 24 24
25 25 24 24 24 24 24 24 24 24 24 24 24 25 24 24 24 24 24 24 24 24 23 23 24 24 24 24 23 23 23 23 23 23 24 24 24 24 24 24 24 24 24 24 24 25 25 25 25 25 26 26 26 26 26 26 27 27 26 26 26 26 26 26 26 26 26 26 26 25 25 25 25 25 25 25 25 25 25 25 25 25 25 25 25
26 25 24 24 24 24 24 24 24 24 25 25 25 25 24 24 24 24 24 24 24 24 23 23 23 24 24 24 24 24 23 23 23 23 24 24 24 24 24 24 24 24 24 24 25 25 25 25 25 25 25 26 26 26 26 27 27 27 27 27 26 26 26 26 26 26 26 26 26 26 26 25 25 25 25 25 25 25 25 25 25 25 25 25 25
26 25 25 25 25 24 24 25 25 25 25 25 25 25 25 25 25 25 24 24 24 24 23 23 23 23 23 24 24 23 23 23 23 23 23 24 24 24 24 24 24 24 24 24 25 25 25 25 25 25 25 26 26 26 27 27 27 27 27 27 27 27 26 26 26 26 26 26 26 26 26 26 26 26 26 26 25 25 25 25 25 25 25 25 25
26 25 25 25 25 25 25 25 25 25 25 25 25 25 25 25 25 25 24 24 24 24 24 24 23 23 23 24 23 23 23 23 23 23 24 24 24 24 24 24 24 24 24 24 24 25 25 25 25 25 26 26 26 27 27 27 27 27 27 27 27 27 27 27 27 26 26 26 26 26 26 26 26 26 26 26 26 26 26 25 25 26 25 25 25
26 26 25 25 25 25 25 25 25 25 25 25 25 25 25 25 25 25 24 24 24 24 24 24 24 24 24 24 23 23 23 23 23 24 24 24 24 24 24 24 24 24 24 24 24 24 25 25 25 26 26 26 26 27 27 27 27 27 27 27 27 27 27 27 27 26 26 26 27 26 26 26 26 26 26 26 26 26 26 26 26 26 26 26 26
26 26 25 25 25 25 25 25 25 25 25 25 25 25 25 25 25 25 25 24 24 24 24 24 24 24 24 24 24 24 24 23 24 24 24 24 24 24 24 24 24 24 24 24 24 24 25 25 25 26 26 26 26 26 27 27 27 27 27 27 27 27 27 27 27 27 27 27 27 27 27 27 27 27 27 27 27 27 27 26 26 26 26 26 26
26 26 26 25 26 26 25 25 25 25 25 25 25 25 25 25 25 25 25 25 25 25 24 24 24 24 24 24 24 24 24 24 24 24 24 24 24 23 23 24 24 24 24 24 24 24 24 25 25 26 26 26 26 26 27 27 27 27 27 26 26 27 27 27 27 27 27 27 27 27 27 27 27 27 27 27 27 27 27 27 27 27 27 27 27
26 26 26 26 26 26 26 25 25 25 25 25 26 26 25 25 25 25 25 25 25 25 25 24 24 24 24 24 24 24 24 24 24 24 24 24 24 24 24 24 24 24 24 24 24 24 24 25 25 25 25 26 26 27 27 27 27 26 26 26 25 26 26 27 27 27 27 27 27 27 28 27 28 28 28 27 27 27 27 27 27 27 27 27 27
26 26 26 26 26 26 26 25 25 25 25 25 25 26 25 25 26 26 26 25 25 25 25 24 24 24 24 24 24 24 24 24 24 24 24 24 24 24 24 24 24 24 24 24 24 24 24 25 25 25 25 26 26 27 27 27 27 27 26 26 24 25 26 26 27 28 28 28 28 28 28 28 28 28 28 28 28 28 28 27 27 27 27 27 27
26 26 26 26 26 26 26 25 25 25 25 25 25 26 25 25 26 26 25 25 25 25 25 24 24 24 24 24 24 24 24 24 24 24 24 24 24 24 24 24 24 24 24 24 24 25 25 25 25 25 25 26 26 26 27 27 27 27 26 26 25 25 26 26 26 28 29 28 28 28 28 28 28 28 28 28 28 28 28 28 28 27 27 27 27
26 26 26 26 26 26 26 25 25 25 25 25 25 26 25 26 26 26 25 25 25 25 25 24 24 24 24 25 25 24 24 24 24 24 24 24 24 24 24 24 24 24 24 24 24 25 25 25 25 25 25 25 26 26 27 27 27 27 26 26 26 26 26 26 26 27 28 29 29 29 29 29 29 29 29 29 29 29 28 28 28 28 28 27 27
26 26 26 26 26 26 26 25 25 25 25 25 25 25 25 26 26 26 25 25 25 25 25 25 25 25 25 25 25 24 24 24 24 24 24 24 24 24 24 24 24 24 24 24 24 24 25 25 25 25 25 25 26 26 26 26 26 27 27 27 27 27 27 27 26 26 27 28 29 29 30 29 29 29 29 29 29 29 29 28 28 28 28 27 27
26 26 26 26 26 26 26 25 25 25 25 25 25 25 26 26 26 26 26 26 26 26 25 25 25 25 25 25 25 25 24 24 24 24 24 24 24 24 24 24 24 24 24 24 24 25 25 25 25 25 25 25 26 26 26 26 26 26 27 27 27 27 27 27 27 27 26 27 28 28 29 30 29 30 30 29 29 29 29 29 28 28 28 27 27
27 27 26 26 26 26 26 25 25 25 25 25 25 25 26 26 26 26 26 26 26 26 26 25 25 25 25 25 25 25 24 24 24 24 24 24 24 24 24 24 24 24 24 24 24 25 25 25 25 25 25 25 26 26 26 26 26 26 26 27 27 27 28 27 28 27 27 27 27 26 27 29 29 30 30 30 30 30 29 29 29 28 28 28 27
27 27 27 26 26 26 26 25 25 25 25 25 25 25 26 26 26 26 26 26 26 26 26 26 25 25 25 25 25 25 25 24 24 24 24 24 24 24 24 24 24 24 24 24 24 25 25 25 25 25 25 25 25 25 25 26 26 26 26 26 27 27 27 27 28 28 27 27 27 26 26 27 28 29 30 30 30 30 29 29 29 28 28 28 28
27 27 27 26 26 26 26 26 25 25 25 25 25 25 26 26 26 26 26 26 26 26 26 26 26 25 25 25 25 25 25 25 24 24 24 24 24 24 24 24 24 24 24 25 25 25 25 25 25 25 25 25 25 25 25 26 26 26 26 26 26 26 26 27 27 28 27 27 27 27 27 27 27 29 30 30 30 29 29 29 29 29 28 28 28
Height
831 831 833 833 834 834 834 834 834 834 835 835 835 835 835 835 835 835 835 835 835 835 835 836 836 836 836 836 836 836 837 837 838 838 838 838 837 837 837 837 838 839 839 839 839 839 839 839 840 840 840 840 841 841 842 842 843 843 843 843 843 843 843 844 844 843 843 843 844 844 843 843 843 843 843 843 843 843 843 843 843 843 843 844 844
831 832 833 834 835 835 835 834 835 835 835 836 836 836 836 836 836 836 836 836 836 836 837 837 837 837 837 837 837 837 838 838 838 838 838 839 838 838 838 839 840 841 842 841 839 839 839 839 840 840 841 842 842 843 843 844 844 845 845 845 845 845 845 845 845 845 845 845 845 845 845 844 844 845 845 844 843 844 844 845 845 845 845 845 845
831 833 834 834 835 835 836 835 836 836 836 836 837 837 837 837 837 837 837 837 837 838 838 838 838 838 837 837 838 838 838 838 839 839 839 839 839 839 840 840 841 843 842 840 838 839 840 840 841 841 842 843 843 844 845 845 846 846 846 846 846 846 846 846 847 847 847 846 846 846 846 846 846 847 846 845 844 845 846 846 846 846 846 846 846
832 833 834 835 836 836 836 836 837 837 837 837 838 838 838 838 838 838 838 839 838 839 839 839 839 838 838 838 838 839 839 839 839 839 839 840 840 840 841 841 842 843 841 839 839 840 842 842 843 843 843 844 844 845 846 847 847 848 848 848 847 848 848 848 848 848 848 848 847 847 847 847 847 848 847 846 845 846 848 848 848 848 848 848 848
832 833 834 835 836 836 836 837 837 838 838 838 839 839 839 839 839 839 839 840 839 839 839 839 839 839 839 839 839 839 839 840 840 840 840 840 840 841 842 842 843 843 841 841 841 842 843 844 844 845 845 845 846 846 847 848 848 849 849 849 849 849 849 849 850 850 849 849 849 848 848 848 849 849 849 847 847 848 849 849 850 849 849 849 849
833 834 835 836 836 836 837 838 838 839 839 839 839 839 840 840 840 840 840 841 840 840 840 840 840 840 840 840 840 840 840 840 840 840 841 841 841 842 842 843 843 844 844 843 843 843 844 845 845 846 846 846 847 848 848 849 850 850 850 850 850 850 850 851 851 851 851 850 850 849 850 850 850 850 850 849 848 849 850 851 851 851 851 850 850
833 834 836 836 837 837 838 838 839 840 840 840 840 841 841 841 841 841 842 842 842 841 841 841 841 841 841 841 841 841 841 841 841 841 842 842 842 842 843 844 845 845 845 845 844 844 845 846 847 847 848 848 848 849 849 850 851 851 851 851 851 851 852 852 852 852 852 852 851 851 851 851 851 851 851 850 850 850 852 853 853 852 852 852 852
834 835 836 837 837 838 839 839 840 841 841 841 841 842 842 842 843 843 843 843 843 843 843 843 843 843 843 843 842 842 842 842 842 842 843 843 843 844 844 846 847 847 846 846 846 846 847 848 848 849 849 849 849 850 850 851 852 852 852 852 853 853 853 853 853 853 853 853 853 853 853 852 852 852 853 852 852 852 853 854 854 854 853 853 853
835 836 837 838 838 839 840 840 841 841 842 842 842 843 843 843 844 844 844 844 844 844 844 844 844 844 844 844 844 843 843 843 843 843 844 844 844 845 846 846 847 847 847 848 847 848 848 849 849 850 850 850 851 851 852 852 852 853 853 853 854 854 854 854 854 854 854 854 854 854 854 853 853 853 854 853 853 854 854 855 855 855 855 855 854
836 837 838 838 839 840 841 842 842 843 843 843 843 844 844 845 845 845 845 845 845 845 845 846 846 845 845 845 845 845 845 845 844 844 844 844 845 845 846 846 846 847 848 848 849 849 849 850 851 851 852 852 852 852 853 853 853 854 854 855 855 855 855 855 855 855 856 855 855 855 855 854 854 854 855 855 855 855 855 856 856 856 856 856 856
836 838 839 839 840 841 842 843 843 843 844 844 845 845 845 845 846 846 846 846 846 846 846 847 847 847 847 847 846 846 846 846 845 845 845 845 846 846 847 847 846 847 848 849 849 850 851 851 852 852 853 853 853 853 854 854 855 855 855 856 856 856 856 857 857 856 856 856 856 856 856 856 855 856 856 856 856 856 856 857 857 857 857 857 857
837 839 839 841 841 842 843 844 844 845 845 845 846 845 846 846 847 847 847 847 847 847 847 848 848 848 848 848 848 847 847 846 846 846 846 846 847 847 848 848 847 847 848 849 850 851 852 853 854 854 854 854 855 855 855 855 856 856 856 856 856 857 857 857 857 857 857 857 857 857 857 856 856 857 857 857 857 857 857 858 858 858 858 858 858
838 840 841 842 842 844 844 845 845 845 846 846 846 846 847 847 848 848 848 848 848 849 849 849 849 849 849 849 848 848 848 847 847 847 847 847 848 848 849 850 849 848 849 851 851 853 854 855 855 855 856 856 856 856 856 856 857 857 857 857 858 858 858 858 858 858 858 857 857 858 857 857 857 858 858 858 858 858 859 859 859 859 859 859 859
839 840 841 843 843 845 845 846 846 846 847 847 847 848 848 849 849 849 850 850 850 850 850 850 850 850 850 850 849 849 849 848 849 848 849 849 849 850 850 851 851 851 852 853 854 855 857 857 857 857 857 857 858 858 858 858 858 858 858 858 859 859 859 859 859 858 858 858 858 858 858 858 858 859 859 859 859 860 860 860 860 860 860 860 860
839 841 842 843 844 845 846 847 847 847 848 848 849 849 850 850 850 850 851 851 851 851 851 851 851 851 851 851 850 850 850 850 850 850 850 850 850 851 851 852 853 853 854 855 856 857 858 858 858 858 858 859 859 859 859 859 859 859 859 860 860 859 859 859 859 859 859 859 859 859 859 859 859 860 860 860 861 861 861 861 861 861 861 861 861
841 842 843 844 845 846 847 848 848 848 849 849 850 850 851 851 851 851 851 852 852 852 852 852 852 852 852 852 852 851 851 851 851 851 851 851 851 852 853 854 854 855 856 857 858 859 859 859 859 859 860 860 860 860 860 861 861 861 861 861 861 860 860 860 860 860 860 860 860 860 860 860 860 860 861 861 862 862 862 862 862 862 862 862 862
842 843 844 845 846 847 847 848 849 849 850 850 850 851 852 852 852 852 852 852 853 853 853 853 853 853 853 853 853 852 852 852 852 852 852 852 852 853 854 855 856 857 857 858 859 860 860 860 860 860 861 861 861 861 861 862 862 862 862 862 862 862 862 861 861 861 861 861 861 861 861 861 861 862 862 862 863 863 863 863 863 863 863 863 863
843 844 845 846 846 847 848 849 849 850 851 851 852 852 852 852 853 853 853 853 853 854 854 854 854 854 854 854 854 853 854 854 854 854 854 854 854 854 855 856 857 858 859 859 860 861 861 861 861 861 862 862 862 862 863 863 863 863 863 863 863 863 863 862 862 862 862 862 862 862 862 863 863 863 863 863 864 864 864 864 864 864 864 864 864
844 845 845 847 847 848 849 849 850 851 852 852 852 853 853 853 853 854 854 854 854 855 855 855 855 855 855 855 855 855 855 855 855 855 855 855 855 856 856 857 858 859 860 860 861 861 862 862 862 862 863 863 864 864 864 864 864 864 864 864 864 864 864 864 864 863 863 863 863 863 863 864 864 864 865 865 865 865 865 865 865 865 865 865 865
845 846 846 847 847 849 849 850 851 851 852 853 853 854 854 854 854 855 855 855 855 856 856 856 857 857 856 856 856 856 856 856 856 856 857 857 857 857 858 858 859 860 861 861 862 862 862 863 863 864 864 865 865 865 866 866 866 865 866 866 865 865 865 865 865 865 865 865 865 865 865 865 865 865 865 866 866 866 866 866 866 866 866 866 866
846 846 847 848 848 849 850 850 851 852 853 853 854 854 855 855 855 856 856 857 856 857 857 857 858 857 858 858 857 857 857 857 857 858 858 859 859 859 860 860 861 861 862 862 863 863 863 864 864 865 865 866 866 866 867 867 867 867 867 867 866 866 866 866 866 866 866 866 866 866 866 866 866 866 866 866 866 866 866 866 867 867 867 867 867
845 847 848 849 849 850 850 851 852 853 854 854 855 855 856 856 856 857 857 858 857 858 858 858 858 858 859 858 858 858 858 859 858 859 859 860 861 861 861 862 862 862 863 863 863 864 864 864 865 865 866 866 867 867 867 867 867 867 867 867 867 867 867 867 867 867 867 867 867 867 867 867 867 867 867 867 867 867 867 867 867 867 867 867 867
845 846 848 849 849 850 851 852 852 854 854 855 856 856 857 857 858 858 858 859 859 859 859 859 859 860 860 860 860 860 860 860 860 860 861 861 862 863 863 863 864 864 864 864 865 865 865 865 866 866 866 867 867 868 868 868 868 868 868 868 867 867 868 868 868 868 868 867 868 867 867 868 867 867 867 867 867 867 868 868 868 868 868 868 868
844 845 847 849 850 850 851 852 853 854 855 856 856 857 858 858 859 859 859 860 860 860 860 860 861 861 861 861 861 861 861 861 861 862 862 863 863 864 864 865 865 865 865 865 866 866 866 867 867 867 868 868 868 868 868 868 868 868 868 868 868 868 868 869 868 868 868 868 868 868 868 868 868 868 868 868 868 868 868 868 868 868 868 868 868
843 845 847 849 850 850 851 852 854 854 855 856 857 858 858 859 860 860 861 861 861 861 861 861 862 862 862 862 862 862 863 863 863 863 863 864 864 865 865 866 866 866 867 867 867 867 868 868 869 869 869 869 869 869 869 869 869 869 869 869 869 869 869 869 869 869 869 869 869 869 868 868 868 868 868 868 869 869 869 869 869 869 869 869 869
843 845 847 848 850 851 852 852 854 855 856 857 857 858 859 860 860 861 861 862 862 862 862 863 863 863 863 864 864 864 864 864 864 864 865 865 865 866 866 867 867 867 868 868 868 869 869 870 870 870 870 870 870 870 870 870 870 870 870 870 870 870 870 869 869 869 869 869 869 869 869 869 869 869 869 869 869 869 869 869 869 869 869 869 869
843 845 846 848 849 850 852 853 854 855 856 857 858 859 859 860 861 861 862 862 863 863 863 863 864 864 864 865 865 865 865 865 866 866 866 866 867 867 867 868 868 869 869 869 869 870 870 870 870 871 871 871 870 870 870 870 870 870 871 871 870 870 870 870 869 869 869 869 869 869 869 869 869 869 869 869 869 869 869 869 869 869 869 869 869
842 845 846 848 849 850 852 853 854 855 856 857 858 859 860 861 862 862 863 863 863 864 864 864 865 865 865 866 866 866 867 867 867 867 867 867 868 868 868 869 869 870 870 870 870 870 871 870 871 871 871 871 870 870 870 870 870 870 871 871 871 871 871 871 870 869 869 869 869 869 869 869 869 869 869 869 870 870 869 870 869 869 869 869 869
842 844 846 847 849 850 851 853 854 855 856 857 858 859 860 861 862 863 863 864 864 864 865 865 866 866 866 867 867 868 868 868 868 868 868 868 869 869 869 870 870 870 871 871 871 871 871 871 871 871 871 871 870 870 870 869 870 869 870 871 871 871 871 871 870 870 870 870 869 869 869 869 869 869 869 870 870 870 870 869 869 869 869 869 869
842 843 845 847 849 850 851 853 854 855 856 857 858 859 861 862 862 863 864 864 864 865 865 866 866 867 867 867 868 868 868 869 869 869 869 869 869 870 870 870 870 871 872 872 872 872 872 872 872 871 871 871 871 871 870 870 870 870 870 870 871 871 871 871 871 871 870 870 870 870 870 869 870 870 870 870 870 870 869 869 869 869 868 868 868
841 843 845 847 848 850 851 853 854 855 856 857 858 859 860 861 862 863 864 864 865 865 866 866 867 867 868 868 868 869 869 869 870 870 870 870 870 870 870 871 871 871 872 872 872 872 872 872 872 872 872 872 872 871 871 871 871 870 870 870 871 871 872 872 872 871 871 870 870 870 870 870 870 870 870 870 870 870 869 869 869 868 868 868 868
841 842 844 847 848 850 851 852 854 855 856 857 858 859 860 861 862 863 864 864 865 865 866 867 867 868 868 868 869 869 870 870 870 870 870 871 871 871 871 871 872 872 873 873 873 873 873 873 873 873 873 872 872 872 872 872 872 872 871 871 871 872 872 872 872 872 871 871 871 871 870 871 870 870 870 870 870 869 869 869 868 868 868 868 867
840 842 844 846 848 849 851 852 854 855 855 857 858 859 860 861 862 863 864 864 865 866 866 867 867 868 868 869 869 869 870 870 870 871 871 871 871 872 872 872 872 873 873 873 873 873 873 873 873 873 873 873 873 872 872 872 872 873 872 872 872 872 872 872 872 872 872 871 871 871 871 871 871 871 870 870 870 869 869 868 868 868 868 868 867
839 842 844 846 848 849 851 852 853 855 855 857 858 859 860 861 862 863 864 864 865 866 866 867 867 868 868 869 869 870 871 871 871 872 872 872 872 872 873 873 873 873 874 874 874 874 874 874 874 874 873 873 873 872 872 872 873 873 873 873 873 873 873 872 873 872 872 872 872 872 872 872 871 871 871 870 870 869 869 868 868 868 868 867 867
839 841 843 845 847 848 850 851 853 854 855 857 858 859 860 861 862 863 864 865 865 866 866 867 867 868 868 869 870 870 871 871 872 872 872 873 873 873 873 874 874 874 874 874 874 874 874 874 874 874 873 873 873 873 873 873 873 873 873 874 873 873 873 873 873 873 873 873 872 872 872 872 872 871 871 870 870 869 869 869 869 868 868 868 867
838 840 842 844 847 848 850 851 852 854 855 857 858 859 860 861 862 863 863 865 865 866 866 867 867 868 868 869 870 871 871 872 872 873 873 873 873 874 874 874 874 875 875 875 875 874 874 874 874 874 874 874 874 873 873 873 873 874 874 874 874 874 873 873 873 873 873 873 873 873 873 872 872 871 871 870 870 870 869 869 869 869 868 868 867
838 840 842 844 846 847 849 850 852 853 855 857 858 859 860 861 861 862 863 864 865 866 866 867 867 868 869 869 870 871 871 872 872 873 873 874 874 874 874 875 875 875 875 875 875 875 874 874 874 874 874 874 874 874 874 874 874 874 874 874 874 874 874 874 874 874 873 873 873 873 873 872 872 871 871 870 870 870 870 870 869 869 869 868 867
837 839 841 843 845 847 849 850 852 853 855 856 858 859 860 861 861 862 863 864 865 866 866 867 868 868 869 870 871 871 872 872 873 873 873 874 874 875 875 875 876 876 876 876 875 875 875 875 875 875 875 875 875 874 874 875 875 875 874 874 874 874 874 874 874 874 873 873 873 873 873 872 872 871 870 870 870 870 870 870 870 869 869 868 867
837 839 841 843 844 846 848 850 851 853 855 856 858 859 860 861 862 862 863 864 865 866 866 867 868 869 869 870 871 872 872 873 873 873 874 874 875 875 875 875 876 876 876 876 876 876 875 875 875 875 876 875 875 875 875 875 875 875 875 875 874 874 874 874 874 873 873 873 873 872 872 872 871 871 870 870 870 870 870 870 869 869 868 868 867
836 839 841 843 844 846 848 850 851 853 854 856 857 859 860 861 862 862 863 864 865 866 867 868 868 869 869 870 871 872 872 873 873 874 874 875 875 875 875 876 876 876 876 876 876 876 876 876 876 876 876 876 876 875 875 875 875 875 875 875 875 875 874 874 874 874 873 873 872 872 871 871 871 870 870 870 870 870 870 870 869 869 868 867 867
835 838 840 842 843 845 847 849 851 853 854 855 857 858 859 860 861 862 863 864 865 866 867 868 868 869 869 870 871 872 872 873 874 874 874 875 875 875 876 876 876 876 877 877 877 877 877 876 876 876 876 876 876 876 876 875 875 876 876 875 875 875 875 874 874 874 873 873 872 872 871 871 871 870 870 870 870 870 869 870 869 869 868 867 866
834 837 839 841 843 844 846 848 850 852 854 855 856 857 859 860 861 862 863 864 865 866 866 867 868 869 870 870 871 872 872 873 874 874 874 875 875 875 876 876 876 877 877 877 877 877 877 877 877 877 877 877 877 876 876 876 876 876 876 876 876 875 874 874 874 873 872 872 872 871 871 871 870 870 870 870 869 869 869 869 869 869 868 867 866
833 836 839 840 842 843 845 848 850 852 853 855 856 857 859 860 861 862 863 864 865 865 866 867 868 869 869 870 871 871 872 873 873 874 874 875 875 875 876 876 876 877 877 877 877 878 878 878 878 878 877 877 877 877 877 876 876 876 876 878 878 877 877 874 873 873 872 871 871 871 871 870 870 870 870 869 869 869 869 869 869 869 868 867 866
832 835 838 840 841 842 844 847 849 851 853 855 856 857 859 860 862 863 863 864 865 866 866 867 868 868 869 870 870 871 872 872 873 874 874 875 875 876 876 876 876 877 877 877 878 878 878 878 878 878 878 877 877 877 877 877 877 877 877 879 878 880 881 877 872 871 871 870 870 869 870 870 869 870 869 869 869 869 869 869 869 869 868 867 866
832 834 836 838 840 842 844 846 848 850 852 854 855 857 858 860 861 862 863 864 865 866 866 867 867 868 869 869 870 870 871 872 873 873 874 875 875 876 876 876 877 877 877 877 878 878 878 878 878 878 878 878 877 877 877 877 877 877 877 878 879 882 881 876 874 872 870 869 869 868 868 869 869 869 869 868 868 869 869 869 869 868 868 867 867
830 833 835 837 840 842 843 845 847 849 851 852 854 856 857 859 859 860 861 862 864 864 865 866 867 867 868 868 869 870 871 872 873 873 874 874 875 875 876 876 876 877 877 877 878 878 878 878 878 878 878 878 878 878 877 877 877 877 876 876 878 879 878 875 876 875 871 868 868 867 867 867 868 868 868 868 868 869 869 869 869 868 868 868 867
829 832 835 837 839 841 843 844 846 848 850 851 853 855 856 857 858 859 860 861 862 863 864 865 866 867 868 868 869 870 871 872 872 873 874 874 875 875 876 876 876 877 877 877 878 878 878 878 878 878 878 878 878 878 878 877 877 877 876 876 875 876 875 875 876 876 875 871 868 867 867 867 867 868 867 868 868 868 868 868 868 868 868 868 867
828 831 833 836 838 840 842 844 845 847 849 850 852 853 855 856 857 858 859 860 861 862 863 864 865 866 867 868 869 870 870 871 872 873 873 874 874 875 875 876 876 876 877 877 878 878 878 878 878 878 879 879 878 878 878 878 877 877 876 876 876 875 875 875 874 874 876 875 871 868 867 867 867 867 867 868 868 868 868 868 868 868 868 867 866
827 829 832 835 837 839 841 843 844 846 848 849 851 852 853 854 856 857 857 859 860 861 863 864 865 866 867 868 868 869 870 871 872 872 873 873 874 874 875 875 876 876 877 877 878 878 878 878 878 878 879 879 879 879 878 878 878 877 877 876 876 875 875 874 874 873 873 875 875 870 868 867 867 867 867 868 868 868 868 868 868 868 868 867 866
825 828 831 833 836 838 840 842 843 845 847 848 850 851 852 854 855 855 856 858 859 861 862 863 864 865 866 867 868 869 870 870 871 872 872 873 873 874 874 875 875 876 877 877 877 878 878 878 878 878 878 878 879 878 878 878 878 877 877 876 876 876 875 874 874 874 873 874 874 872 870 869 868 868 867 867 868 868 868 868 868 868 868 867 867
824 827 830 832 834 837 839 840 842 844 845 847 848 850 851 853 854 855 856 857 859 860 861 862 863 864 865 866 867 868 869 870 871 871 872 872 873 873 874 874 875 875 876 877 877 878 878 878 878 878 878 878 878 878 878 878 878 877 877 876 876 876 876 875 874 874 874 873 873 873 871 869 869 868 868 868 869 869 869 869 868 868 868 868 867
Wind_Speed
15 14 14 14 14 14 13 13 14 14 14 13 13 13 12 12 12 13 14 13 14 14 14 14 14 14 14 14 15 15 15 15 15 15 16 16 16 15 14 15 16 17 15 14 14 15 16 16 16 16 17 18 19 20 20 19 18 18 19 20 21 21 20 20 20 20 20 20 20 19 19 20 20 18 18 18 20 21 21 21 21 21 20 19 19
17 16 15 15 15 14 13 13 14 14 14 13 13 12 12 12 12 13 13 13 14 14 14 13 14 14 13 13 13 14 14 15 15 14 15 15 15 15 14 15 16 17 17 15 15 15 15 16 16 16 17 18 18 19 19 19 20 20 20 21 22 20 19 19 19 19 19 20 19 19 19 20 19 18 18 18 20 20 20 20 21 21 20 19 19
18 17 16 16 15 14 14 14 15 15 14 12 12 12 11 11 12 12 13 13 14 13 13 13 14 14 13 13 13 13 14 14 15 15 15 15 15 16 15 16 16 17 17 16 17 17 16 16 16 16 17 17 18 18 18 19 20 20 21 22 21 20 19 19 18 18 19 19 19 20 20 19 18 17 18 19 20 20 20 20 20 20 19 19 19
19 17 17 17 16 15 14 15 15 14 13 11 11 11 11 11 12 12 12 13 13 13 13 14 14 14 14 14 14 13 14 14 14 15 15 15 15 16 17 17 17 17 16 16 18 18 17 15 15 16 17 17 18 18 18 19 20 21 22 22 21 19 18 18 18 18 18 19 20 21 21 20 19 17 18 20 21 21 20 19 19 19 18 19 19
20 18 18 18 17 16 14 15 15 13 12 11 11 10 11 12 12 12 12 13 13 13 13 15 15 15 15 15 14 14 15 14 14 14 15 15 15 16 17 17 18 17 16 16 17 18 17 16 16 17 18 18 18 18 18 19 20 21 23 22 21 20 19 18 18 17 19 20 22 23 22 21 19 19 20 21 21 20 19 18 18 18 18 18 18
20 19 19 19 17 16 15 15 14 12 11 10 10 11 12 12 13 13 13 13 13 14 14 15 15 15 15 14 14 14 14 14 13 13 14 15 15 16 17 18 18 17 16 16 17 18 17 16 17 18 18 18 18 19 19 19 20 22 23 22 21 20 19 18 18 19 20 22 23 23 22 21 19 19 20 21 21 20 18 18 17 17 17 18 18
21 22 20 19 18 18 16 14 13 12 11 10 11 11 12 12 13 13 13 14 13 14 14 15 15 15 14 14 14 14 14 14 13 13 14 15 15 16 17 18 18 17 16 17 17 17 17 16 17 18 19 19 19 19 19 19 19 20 20 20 21 20 19 18 19 20 20 21 22 22 21 21 20 18 19 20 20 19 18 17 17 17 17 17 18
23 23 20 20 19 18 15 14 13 12 11 10 11 12 13 13 13 14 14 14 14 14 14 15 15 15 14 14 14 14 13 13 13 13 14 15 17 16 16 18 18 18 17 17 17 17 17 16 18 18 18 19 19 19 19 18 18 18 19 20 20 20 20 19 19 20 20 20 21 21 21 20 20 19 18 18 18 18 17 16 16 16 16 17 17
24 23 22 22 19 18 15 14 13 12 11 10 12 13 14 14 14 14 14 14 14 14 14 15 15 15 14 14 14 13 13 13 13 13 14 15 16 17 16 18 18 19 18 17 17 17 17 18 18 18 17 18 18 18 18 18 19 19 19 20 20 19 19 18 18 19 19 19 20 20 20 20 20 19 17 17 17 17 17 15 15 15 15 16 16
24 23 23 21 19 17 15 15 13 12 11 12 13 14 14 14 14 14 15 14 14 14 15 15 15 15 14 13 13 13 13 14 13 13 15 14 15 16 16 18 18 18 18 18 18 17 17 18 19 18 16 16 17 17 17 17 18 19 18 19 19 19 18 18 17 18 18 19 19 18 18 19 18 17 16 16 17 17 16 15 15 15 14 14 14
24 24 23 20 19 17 16 14 13 12 12 13 13 14 14 14 14 14 14 14 14 14 15 15 15 15 14 13 13 13 13 13 13 14 14 15 15 15 17 18 18 18 19 19 19 18 17 17 18 18 17 17 17 17 18 18 17 17 17 17 18 19 18 17 17 17 17 18 19 18 17 18 18 16 16 17 17 17 16 15 15 14 14 14 14
24 24 22 20 18 16 15 13 13 13 13 13 13 13 13 13 13 14 14 13 14 15 15 15 15 14 13 13 13 12 12 13 13 14 15 15 16 16 17 18 18 19 20 21 20 18 17 18 18 17 17 18 18 18 18 18 16 17 17 17 18 19 18 16 16 16 17 18 19 18 18 18 17 16 16 17 17 16 15 15 14 14 13 13 13
25 23 21 19 17 16 14 13 13 13 14 13 13 13 13 13 13 13 13 13 14 14 14 15 14 13 13 13 13 13 13 13 14 15 15 15 16 17 18 19 18 18 20 21 20 18 17 18 18 18 18 19 18 18 18 18 17 18 18 17 18 18 16 15 14 16 17 18 18 17 18 17 16 15 15 16 15 14 14 13 13 13 12 12 12
26 23 21 19 17 16 14 14 14 14 14 13 13 13 12 13 12 13 12 13 14 14 14 14 14 13 13 13 13 14 13 14 15 15 16 16 16 17 18 19 18 19 20 21 20 18 17 17 18 18 19 19 19 18 17 17 17 17 17 17 17 15 14 14 13 15 17 18 18 17 17 16 16 15 14 14 13 13 13 12 12 12 11 11 11
26 23 21 19 17 15 14 14 14 14 14 13 13 13 12 13 13 13 12 13 14 14 14 13 13 13 13 14 14 14 14 14 15 15 16 17 16 17 18 19 18 18 19 20 19 17 17 17 17 18 19 19 19 18 16 16 16 15 15 15 14 12 12 12 13 16 17 17 16 16 16 15 14 14 14 13 12 12 12 11 11 11 10 10 9
24 23 21 19 18 15 14 14 14 14 13 13 13 13 13 13 13 13 13 13 13 15 15 14 14 14 13 13 14 14 14 14 15 16 16 16 16 17 18 18 18 18 18 18 18 17 17 16 16 17 19 19 19 18 17 16 15 13 13 14 13 10 11 12 15 16 16 16 15 15 15 14 13 13 12 12 12 11 11 11 10 10 10 9 9
22 22 21 20 18 15 14 14 14 14 14 13 13 13 13 13 13 13 14 14 14 15 15 14 14 14 13 13 14 14 14 14 15 16 16 16 17 17 17 17 18 18 18 17 16 16 16 16 16 17 18 19 18 17 16 14 13 12 12 13 13 10 10 13 14 15 15 15 15 14 14 13 13 12 12 11 11 11 10 10 10 9 9 9 9
21 21 21 20 18 16 15 15 14 14 14 13 12 12 13 13 12 12 13 14 15 15 15 14 14 14 13 13 14 14 14 14 15 15 15 17 17 17 16 17 17 16 16 16 15 15 15 15 16 16 16 17 16 15 14 12 12 12 12 13 13 10 11 12 13 13 14 14 14 14 14 13 12 11 11 11 11 10 10 9 9 9 8 9 8
21 21 20 19 18 16 16 15 15 15 15 14 12 12 13 13 12 13 13 14 14 14 15 15 14 14 14 13 13 14 14 14 15 16 16 17 17 17 16 16 16 15 15 14 14 15 16 17 17 17 17 17 16 15 14 12 12 14 14 13 13 11 10 12 12 12 13 13 13 13 13 12 11 10 10 10 10 9 9 8 8 8 8 8 8
20 20 19 18 17 17 16 16 16 15 15 14 12 12 12 12 13 13 14 14 14 15 15 15 14 14 14 14 14 14 14 14 15 16 16 16 16 16 16 16 15 14 14 13 14 16 17 18 18 18 18 18 17 16 15 13 13 14 15 13 12 10 8 9 10 11 11 12 12 12 11 11 10 9 9 8 8 8 8 7 7 7 7 6 6
19 18 18 18 17 17 17 16 16 16 15 14 13 12 12 12 12 13 14 14 14 15 15 15 15 14 14 15 15 15 15 15 15 15 15 15 15 15 15 15 14 14 14 14 15 16 18 18 18 19 19 18 17 16 15 13 12 12 14 13 10 8 7 7 8 10 10 10 10 10 10 9 9 8 8 7 7 7 6 6 6 6 6 5 5
19 17 17 18 18 18 17 16 16 16 15 14 13 12 13 13 12 13 14 14 14 15 16 15 15 15 15 16 17 16 14 15 15 16 16 15 14 14 14 14 13 13 14 15 16 17 18 18 19 19 19 18 17 16 15 13 11 10 13 14 11 7 6 5 6 9 9 9 9 9 9 9 8 8 7 7 6 6 5 5 5 4 4 4 3
20 19 18 18 18 18 17 17 17 16 16 15 14 13 14 14 13 13 14 14 14 15 16 16 15 15 15 16 17 16 15 15 15 16 15 15 14 14 14 13 14 14 15 15 16 17 18 18 19 19 19 18 16 16 14 13 12 11 11 13 10 7 6 4 6 8 8 8 9 9 9 8 8 7 6 6 5 5 4 4 4 4 3 2 2
22 21 20 18 18 18 17 17 16 16 16 15 14 14 14 14 14 13 14 14 15 16 16 16 16 15 14 16 16 15 15 14 14 15 15 15 14 14 14 14 15 15 15 16 16 17 17 18 18 18 16 15 14 14 13 12 12 12 12 13 11 8 6 3 5 7 8 8 8 8 8 7 7 6 5 5 5 4 4 4 3 3 2 1 1
23 21 20 19 19 18 18 17 16 16 16 15 15 15 15 15 15 14 14 14 15 16 16 16 15 14 14 15 15 14 14 14 15 16 17 16 16 16 16 16 16 16 16 16 16 16 16 15 15 14 13 11 11 11 11 11 12 12 13 12 12 9 5 2 3 6 7 7 7 7 7 7 6 5 5 4 4 4 4 3 3 2 2 1 2
23 22 21 20 19 18 17 16 16 15 16 15 15 15 15 15 15 14 14 14 14 15 14 15 14 14 14 14 14 13 14 15 16 18 18 17 17 17 17 16 15 15 14 13 13 12 11 11 10 10 9 8 8 8 8 9 10 12 13 13 12 9 4 2 2 6 7 7 7 6 6 6 5 5 4 4 4 4 4 3 3 2 2 2 3
23 22 21 21 20 18 16 15 15 15 16 16 15 15 15 15 15 14 14 13 13 13 13 14 15 14 13 13 14 14 14 15 17 18 18 18 17 16 15 14 13 13 12 11 9 8 7 6 6 5 4 4 4 5 6 7 9 10 12 13 11 8 4 3 2 4 7 6 6 5 5 5 5 4 4 4 3 3 3 3 3 3 2 3 3
23 22 22 21 20 18 16 15 15 16 16 16 16 15 15 15 14 13 13 12 12 12 13 15 15 14 14 14 14 13 14 15 17 17 17 17 15 14 13 12 12 11 10 8 7 6 6 4 3 2 1 0 1 5 6 6 7 9 12 13 12 9 4 2 2 3 6 6 5 5 4 4 4 4 3 3 3 4 4 4 4 3 3 4 4
23 22 22 22 21 19 18 17 16 16 16 15 15 14 14 15 14 13 12 11 11 12 13 15 15 14 14 13 12 13 14 14 15 14 14 13 12 11 11 11 11 10 8 7 7 6 5 4 3 1 1 2 1 5 6 6 6 7 11 14 13 8 4 2 2 3 4 5 5 5 4 4 4 4 4 3 3 4 5 5 5 5 5 6 5
24 23 23 23 21 21 20 19 17 16 16 16 15 14 14 14 13 12 12 11 11 12 14 16 15 14 13 12 10 11 13 12 11 11 11 11 10 10 10 10 10 10 9 7 7 6 5 4 3 2 2 1 2 5 6 6 7 6 8 11 10 7 4 2 2 3 3 3 3 3 3 3 3 3 3 3 3 4 4 5 5 5 5 6 5
25 23 23 23 22 21 21 19 19 17 16 16 15 15 14 13 12 12 11 11 11 13 15 15 15 14 12 11 9 10 12 11 10 10 10 10 10 10 10 9 9 9 8 7 6 6 5 4 2 2 1 0 3 7 7 7 8 7 7 8 7 5 4 4 1 3 4 4 2 1 1 1 2 2 2 3 3 4 4 5 5 5 6 6 6
26 24 23 23 22 21 20 20 19 18 17 16 16 15 14 13 12 12 11 11 12 13 14 15 15 14 13 11 9 9 10 11 11 10 10 10 10 10 10 9 8 8 7 6 6 5 3 3 2 2 1 1 5 6 6 8 10 9 8 7 7 5 5 5 3 2 4 4 4 3 2 1 1 1 1 2 2 3 3 4 5 6 6 7 7
27 26 24 23 22 21 19 19 19 18 17 17 16 15 14 13 12 12 11 12 12 13 13 14 14 14 13 11 10 9 9 11 11 11 11 11 11 11 10 9 8 7 7 7 5 3 2 2 2 2 1 1 4 5 4 8 10 10 10 9 8 6 5 6 4 2 3 3 3 3 3 3 2 1 0 1 1 2 2 2 3 4 4 5 5
28 27 26 25 23 21 20 20 20 19 18 17 17 15 14 13 12 12 11 11 12 12 12 13 13 13 12 11 10 10 10 12 12 11 12 12 11 10 9 8 8 7 7 7 5 2 2 2 2 2 1 1 3 4 4 7 8 10 11 9 8 7 7 7 6 5 2 1 1 1 1 2 2 1 1 0 1 1 1 1 0 1 2 2 3
28 28 28 26 23 21 21 21 21 19 19 19 17 16 15 14 13 12 12 12 12 12 12 12 12 11 12 11 10 11 12 12 12 11 12 11 10 9 8 8 7 6 7 6 4 3 3 3 2 2 3 2 3 4 5 6 7 8 8 7 8 8 7 7 7 6 4 1 1 2 2 1 0 0 0 0 0 1 2 2 2 1 1 1 1
30 29 29 27 23 22 22 22 21 20 21 19 18 16 14 13 13 13 13 13 13 14 14 12 11 10 11 12 11 12 12 12 11 11 11 11 9 8 8 7 6 5 5 5 4 4 4 3 3 3 3 2 2 4 6 6 7 8 7 5 7 8 6 6 7 7 5 4 4 4 4 4 3 2 2 2 1 1 1 2 2 2 2 2 2
31 30 29 27 24 23 22 22 21 20 20 19 18 15 13 14 14 14 14 14 15 15 15 13 11 10 11 11 11 12 12 11 10 9 10 9 8 8 8 7 6 5 5 4 4 4 3 3 2 2 2 3 1 4 6 7 7 7 7 6 5 7 6 5 7 6 6 6 6 6 6 5 5 4 4 4 3 2 2 1 0 1 1 1 2
31 31 30 28 26 24 22 22 21 20 20 19 18 15 14 16 14 14 15 16 16 14 13 13 12 12 12 11 12 13 12 10 9 9 9 9 8 9 8 8 7 6 5 4 3 2 2 2 1 0 2 4 2 3 6 8 7 7 8 7 5 6 7 6 7 8 8 7 8 8 7 7 7 6 5 5 4 4 3 2 2 1 2 2 3
30 31 30 28 27 25 22 22 21 20 19 19 18 16 17 17 14 15 17 18 17 15 12 12 12 12 12 12 13 14 13 11 10 10 10 9 10 10 9 8 8 7 5 4 3 2 2 2 2 2 2 3 4 3 5 8 9 8 8 7 5 6 6 6 8 10 10 9 9 10 9 9 9 8 7 6 5 5 4 3 3 2 3 3 4
29 31 31 28 28 27 24 23 22 21 20 19 19 19 20 18 16 16 17 18 19 16 13 11 11 11 11 12 13 13 12 10 10 10 10 10 11 11 9 9 9 8 5 4 4 2 2 4 3 2 1 3 5 5 5 6 8 9 7 6 6 5 5 6 8 10 11 11 11 12 12 11 10 10 9 7 6 6 5 4 4 4 4 5 5
29 32 31 30 29 28 26 25 23 23 22 21 20 21 22 20 19 17 17 19 18 15 14 12 11 10 11 11 11 12 11 9 9 9 10 10 11 10 8 8 9 9 5 4 4 2 3 5 5 2 1 3 3 2 3 5 7 7 4 5 7 6 6 6 9 11 12 13 13 13 13 12 11 10 9 8 7 6 6 5 4 4 4 4 5
31 33 32 31 30 28 28 27 25 25 23 21 22 22 21 20 19 18 17 17 16 15 14 13 12 10 10 10 11 12 12 10 9 9 9 10 10 9 8 8 8 9 7 5 5 4 4 6 5 3 0 2 2 2 2 1 2 3 2 3 5 6 7 8 9 11 13 14 14 13 13 13 12 10 9 10 8 6 6 5 3 3 2 3 6
34 34 33 32 31 29 29 28 27 26 23 21 23 23 19 18 18 17 17 16 14 14 13 13 12 10 10 10 11 12 12 11 10 10 10 9 9 9 8 7 8 8 7 7 6 5 5 5 5 3 2 2 2 2 1 1 2 3 1 0 2 2 5 7 9 11 13 14 14 14 14 14 13 11 10 10 9 7 5 4 4 2 1 4 7
33 33 32 32 31 30 30 30 28 27 25 21 22 23 18 17 16 15 16 15 14 14 13 13 12 10 9 9 11 11 11 11 10 10 10 9 9 8 8 7 7 7 7 8 7 6 5 4 3 2 2 3 2 1 1 1 3 4 1 0 0 1 1 4 7 9 11 13 14 15 15 15 14 13 12 11 10 9 6 5 5 3 2 4 7
32 32 33 31 31 32 31 30 28 27 27 22 22 24 19 18 17 16 17 16 15 15 15 16 14 11 10 10 11 10 10 11 11 10 10 9 9 9 8 7 7 8 8 7 7 6 5 3 2 1 2 3 3 1 2 1 3 3 1 1 1 1 2 3 5 6 8 12 12 13 15 15 16 15 14 13 11 10 9 8 6 4 3 3 5
31 33 33 31 31 32 30 29 27 27 28 24 24 25 20 19 21 20 21 20 19 18 18 19 17 15 12 11 11 10 10 11 11 11 10 9 9 9 9 8 8 8 8 7 7 7 5 3 2 2 2 2 2 1 2 2 3 2 2 3 3 3 3 3 2 2 6 9 10 10 13 14 14 14 13 12 10 9 10 10 8 4 1 2 3
31 32 31 30 31 32 30 29 27 26 28 26 24 25 21 20 23 22 22 22 22 21 19 19 18 16 14 12 11 11 11 11 11 10 10 10 9 9 9 9 8 8 8 7 8 7 5 4 4 3 4 2 1 1 1 1 1 2 3 3 4 3 3 3 1 1 3 5 5 6 8 10 11 11 10 9 8 8 8 9 9 4 0 1 1
31 31 30 30 32 32 30 29 27 25 27 27 24 24 22 22 22 22 23 23 21 20 20 20 18 16 15 13 12 12 12 12 11 10 10 10 10 9 9 9 8 7 7 7 7 6 5 5 5 5 5 3 1 1 1 2 2 3 3 2 3 3 4 5 3 1 1 2 5 6 3 6 9 10 9 7 6 7 8 6 7 5 2 2 2
32 32 30 31 32 32 30 29 28 25 26 28 25 23 23 22 21 21 23 23 19 18 20 20 19 18 17 15 13 13 13 13 12 12 10 10 10 10 10 10 8 8 7 7 7 5 5 6 6 6 6 4 4 2 0 1 2 3 4 3 4 4 5 4 3 3 2 0 3 4 6 6 4 8 9 9 6 6 7 6 6 5 3 2 3
32 32 30 31 32 32 30 30 29 26 25 28 26 23 23 22 20 21 23 23 20 19 20 20 20 20 19 18 16 14 14 14 14 13 11 10 10 11 11 10 8 8 8 8 7 6 6 7 7 7 7 7 6 3 2 1 1 3 3 4 5 5 5 4 3 5 3 1 1 3 7 8 2 3 4 8 7 5 5 6 6 4 3 3 4
31 31 30 31 32 32 30 30 30 27 25 26 26 23 23 22 20 21 22 21 19 20 20 19 20 21 20 20 19 16 15 15 14 13 12 11 11 11 11 11 10 10 9 9 7 7 8 9 8 8 7 8 7 5 4 3 2 3 3 4 6 6 7 6 6 7 5 2 2 3 6 8 6 4 1 5 6 6 6 6 6 5 3 2 5
Wind_Direction
156 142 145 137 133 133 122 127 128 128 123 119 117 114 114 110 109 105 104 103 101 99 97 98 100 102 104 106 110 112 112 112 110 108 111 119 125 127 129 129 129 124 112 105 105 104 105 105 106 106 106 110 111 115 119 120 114 110 108 108 109 108 109 108 107 107 107 104 101 100 100 98 96 95 96 98 101 100 98 96 94 93 93 93 93
153 145 147 143 139 133 127 130 132 132 123 119 118 118 118 114 112 107 105 101 99 98 99 102 103 104 105 107 109 111 112 112 112 112 114 119 125 129 129 130 131 121 111 108 109 108 108 106 106 108 108 110 112 114 116 119 117 112 109 109 108 106 106 106 107 108 109 108 105 103 101 100 98 99 99 99 99 99 98 97 96 96 96 96 95
147 147 146 144 141 135 132 133 135 130 122 122 121 121 118 117 113 108 106 101 101 102 103 105 106 106 105 106 108 112 115 115 116 116 118 121 122 124 125 128 125 114 111 116 118 113 108 106 107 109 110 111 113 114 116 118 118 116 114 111 108 106 106 107 109 109 110 108 108 107 104 102 99 100 102 101 100 100 99 98 97 97 96 96 95
147 147 144 143 140 136 136 138 135 127 124 125 123 123 119 115 110 106 105 105 106 106 108 108 108 107 107 108 109 113 117 117 117 119 122 121 119 121 123 124 119 113 120 125 120 113 108 108 110 111 113 113 115 116 117 117 118 120 118 113 110 109 108 108 109 109 110 109 109 108 104 100 99 99 101 101 102 100 99 98 96 96 94 93 92
147 144 145 145 140 136 139 139 133 127 127 126 126 124 118 112 109 111 110 111 110 110 111 109 108 107 108 108 109 113 116 116 118 122 123 121 120 119 119 121 120 119 127 125 117 114 114 114 114 114 115 115 116 117 117 116 117 119 118 114 113 111 109 107 107 109 112 112 110 107 103 100 99 98 97 99 99 98 97 96 95 95 94 92 91
146 143 144 144 140 139 142 138 132 131 128 128 126 118 114 113 113 116 115 113 111 110 109 108 108 108 108 109 112 114 115 118 121 124 123 122 122 122 122 123 123 127 130 122 117 118 118 117 117 117 116 116 116 117 117 116 117 118 119 116 114 114 112 110 110 112 113 112 108 105 103 101 98 96 95 95 95 96 96 95 95 96 95 94 93
145 142 144 144 142 142 143 138 134 132 129 129 123 115 116 117 119 118 114 111 109 109 107 109 110 109 109 110 113 114 116 120 124 125 124 124 124 125 125 123 124 131 128 120 120 119 119 119 119 119 118 116 115 116 117 116 117 118 119 117 116 116 114 112 112 111 110 108 105 104 103 101 97 95 93 92 93 95 95 95 96 97 95 94 94
145 145 147 144 143 144 142 137 135 132 129 126 119 117 119 120 120 116 111 109 109 107 106 109 110 110 110 109 109 110 114 117 121 124 124 125 124 123 125 125 125 128 123 120 123 122 121 121 120 120 118 116 115 116 116 116 116 118 119 119 118 116 114 112 112 110 109 108 106 105 102 100 98 96 96 95 95 96 96 95 94 94 93 93 93
147 147 147 145 144 143 140 138 136 132 128 122 120 120 119 118 117 114 111 110 109 108 109 111 110 110 109 109 109 110 112 114 117 121 122 121 121 123 125 122 121 123 121 122 126 124 124 123 122 119 116 116 117 117 117 116 115 116 119 120 119 116 114 112 111 110 109 109 107 105 103 102 99 99 99 97 97 97 98 97 95 95 94 93 93
148 147 147 145 144 142 139 139 135 131 126 121 121 120 118 117 116 114 112 111 110 112 114 113 111 110 110 111 111 114 115 116 117 118 119 119 121 122 120 117 119 121 120 122 123 121 121 124 124 119 118 119 119 119 118 117 115 116 118 120 120 117 115 113 112 109 109 108 105 105 104 103 102 102 101 99 99 99 99 99 98 98 97 96 94
149 149 148 144 141 141 140 138 132 130 126 123 121 119 119 118 117 115 113 116 116 117 117 112 110 110 111 114 115 118 119 119 120 117 117 119 121 119 117 118 120 119 117 119 119 118 119 123 124 121 122 122 121 120 119 117 114 115 117 118 119 118 117 117 117 113 113 111 108 108 105 101 100 100 100 102 102 101 100 101 102 101 99 98 97
151 150 146 142 140 141 140 137 134 130 127 125 121 120 119 117 117 117 117 119 118 117 117 113 111 111 112 115 115 117 118 119 118 117 117 119 119 119 118 119 121 119 117 117 117 117 120 123 122 121 121 122 121 119 118 117 114 114 113 115 117 119 120 121 120 117 116 114 111 109 104 100 98 99 101 103 102 102 103 104 102 100 99 99 99
151 149 143 142 142 142 140 137 135 129 128 126 122 121 118 118 118 118 119 120 119 119 117 116 115 115 114 113 112 113 116 118 117 116 117 119 119 119 118 118 121 119 117 118 118 118 121 123 122 120 120 119 119 118 119 117 116 115 113 113 116 117 119 119 117 119 119 115 111 107 104 101 102 103 102 103 103 104 104 104 103 101 101 101 101
151 148 143 143 143 142 141 138 135 131 129 127 125 123 122 123 122 122 123 124 124 122 118 117 115 114 114 110 108 109 112 113 115 116 117 120 120 120 118 118 120 119 118 118 119 121 124 124 123 123 120 119 118 117 117 116 118 117 113 113 114 116 120 119 116 120 121 115 112 109 106 105 106 106 104 103 104 106 106 105 105 105 105 104 103
151 148 144 144 144 143 142 138 135 133 132 128 129 129 129 129 128 129 128 126 124 121 118 117 114 112 111 107 107 108 108 110 113 116 118 121 121 121 121 120 120 119 119 119 121 124 125 126 127 126 124 122 120 118 117 116 118 115 112 112 115 119 120 121 120 121 120 116 114 113 110 109 109 108 106 107 108 109 109 109 109 108 107 105 103
151 146 144 145 145 145 143 139 138 136 134 132 133 134 135 134 133 133 129 127 124 121 119 118 115 111 109 107 107 106 105 109 113 114 116 119 120 120 120 120 121 121 122 123 125 125 124 127 130 128 128 127 123 120 119 115 115 114 114 115 118 121 119 121 122 121 120 120 119 116 115 113 113 112 111 112 114 115 114 113 111 109 107 105 103
150 147 147 148 147 147 145 142 141 137 135 136 138 138 136 133 132 131 128 126 124 122 120 119 116 112 110 108 107 106 105 107 111 114 115 118 119 118 119 119 121 122 123 124 125 125 127 130 131 131 132 132 127 122 119 116 117 123 124 122 124 124 119 123 123 123 123 122 121 118 116 117 117 116 117 119 118 118 115 114 111 111 109 105 102
151 151 150 149 149 149 147 145 143 138 137 139 140 138 132 130 129 128 125 124 123 123 122 120 116 114 110 108 108 107 108 107 110 112 114 116 116 117 118 119 120 122 123 123 126 128 130 133 133 136 136 133 129 123 120 117 121 127 127 128 130 125 123 127 126 126 127 125 123 121 119 118 119 118 119 119 118 115 114 113 112 112 110 108 106
153 153 151 151 153 151 150 148 146 143 141 141 139 135 131 132 131 128 126 125 125 125 125 122 118 115 110 108 108 107 108 108 111 113 114 114 114 116 118 119 121 123 124 127 131 132 134 137 138 139 137 133 132 129 125 123 126 128 125 127 131 130 132 133 131 131 130 129 127 125 123 123 121 119 118 116 116 115 115 115 114 114 113 112 110
152 152 151 154 156 154 152 150 148 145 143 141 138 135 133 135 133 130 129 127 127 127 126 124 121 116 110 109 108 107 107 107 110 111 113 115 116 117 119 120 122 124 127 131 131 131 134 138 139 141 139 137 136 132 129 126 128 130 127 128 135 138 136 131 134 138 136 134 133 131 130 130 128 125 124 121 120 119 117 116 115 115 114 113 109
151 151 154 157 158 156 154 152 149 145 143 141 140 139 136 136 134 131 128 129 131 129 127 125 122 117 113 112 109 106 105 107 109 111 113 114 116 118 120 121 123 127 130 131 128 128 131 135 138 140 140 139 137 133 130 125 122 129 130 133 146 148 137 132 141 147 144 141 139 138 137 137 135 134 133 130 129 127 123 120 117 112 110 110 109
152 154 159 162 159 157 155 154 151 147 146 143 144 143 138 137 134 130 129 134 133 128 128 126 124 121 118 114 109 106 107 110 112 113 114 114 118 121 124 126 128 131 131 130 129 130 132 135 138 141 142 141 140 138 135 127 123 129 129 137 155 164 156 146 154 158 152 149 146 142 142 142 141 140 139 136 136 135 132 128 121 115 113 112 112
156 159 164 166 161 158 157 156 153 151 150 147 148 145 142 141 137 135 136 139 135 130 130 127 126 125 122 115 110 108 109 110 111 113 113 115 119 123 127 129 131 130 129 130 131 134 134 135 139 142 144 143 143 144 142 134 130 136 139 149 164 178 177 165 161 166 162 156 152 147 147 147 146 146 146 145 144 145 142 138 132 132 136 131 124
159 161 165 167 164 160 159 159 157 155 154 152 150 147 148 147 143 142 141 140 138 134 133 130 129 127 125 118 112 112 113 113 116 118 119 121 122 124 127 130 130 129 129 130 131 134 136 138 141 145 147 148 149 149 147 141 141 149 157 167 180 186 183 172 161 169 170 163 157 153 153 151 151 154 158 159 158 160 157 153 149 153 166 172 170
160 161 164 166 166 164 165 163 160 159 158 156 152 150 152 152 148 145 144 142 142 139 137 135 132 130 128 121 118 120 122 123 125 125 124 126 127 127 127 128 127 126 127 127 128 130 132 137 141 144 146 147 149 150 148 146 149 154 158 171 183 187 179 157 168 176 174 170 166 162 162 159 160 168 172 175 178 177 175 174 174 179 203 223 238
161 162 164 166 168 169 170 167 164 163 162 159 153 152 153 153 150 147 146 145 144 143 141 140 135 133 132 129 129 130 130 131 130 129 128 130 129 128 127 128 127 126 128 128 129 129 131 135 140 146 150 152 154 157 159 157 155 154 159 170 182 186 167 118 160 181 177 175 176 172 172 176 180 188 189 193 195 194 195 200 205 207 235 252 257
162 164 166 167 170 173 173 170 168 166 165 163 157 155 155 153 152 151 151 147 147 147 145 142 136 136 136 138 139 135 136 138 137 136 136 136 133 132 132 131 131 132 134 135 135 136 137 140 144 151 162 169 180 188 191 187 178 171 170 176 187 193 172 118 120 178 181 181 186 187 188 195 207 213 211 206 209 218 217 222 229 225 240 254 260
162 165 168 169 172 175 174 172 171 167 165 167 163 161 159 156 155 157 155 150 150 150 148 146 142 141 140 143 144 140 143 144 142 142 143 142 138 137 137 137 136 134 134 134 135 135 134 131 126 128 109 69 183 182 179 177 187 194 191 192 198 199 189 149 106 157 183 189 195 200 203 211 222 229 230 221 226 240 239 241 244 236 245 253 255
163 166 170 172 174 175 174 173 172 169 168 170 169 166 164 163 163 163 161 155 154 155 155 153 148 145 145 149 151 148 150 150 147 147 148 148 144 142 143 144 140 136 134 130 126 123 119 116 110 89 42 40 144 163 156 146 151 172 184 193 200 199 195 177 92 106 162 187 204 209 212 222 231 242 249 246 240 242 244 242 244 243 245 248 248
165 168 172 174 176 178 176 175 174 173 172 172 174 171 171 172 171 171 167 160 157 159 161 158 150 147 151 158 161 158 158 158 156 157 157 155 153 148 145 145 143 138 133 125 120 115 111 108 101 69 51 38 139 155 155 153 147 147 164 180 190 195 201 197 93 80 108 148 195 209 217 225 232 250 261 265 260 249 248 246 249 250 250 249 249
164 167 174 177 178 180 181 179 178 178 176 175 176 174 176 179 179 178 173 166 162 162 164 161 154 153 159 166 172 172 170 171 169 168 167 163 160 153 148 147 143 136 129 122 115 109 104 92 71 51 57 149 163 161 165 168 163 165 179 180 178 185 200 201 162 88 95 99 109 152 203 222 231 248 255 262 262 255 253 252 257 256 257 258 257
165 167 171 175 177 181 185 185 184 181 179 178 178 176 176 179 181 180 173 169 167 167 169 168 164 162 165 171 180 181 180 181 176 174 172 166 163 158 154 150 142 134 127 122 114 108 100 81 62 48 49 158 169 169 175 186 180 179 192 194 185 189 200 198 193 131 108 96 87 88 91 100 123 194 236 253 255 258 257 254 255 255 255 256 259
167 168 169 172 175 181 185 186 186 184 179 176 177 175 173 175 177 175 171 169 168 169 171 173 175 176 174 176 185 185 180 177 173 171 167 161 161 158 155 152 146 141 132 129 125 116 107 97 89 70 55 126 171 182 194 194 190 192 199 203 202 207 210 204 209 198 134 98 85 81 86 90 89 91 116 230 230 235 246 253 256 260 260 259 262
168 169 170 170 174 182 184 184 186 185 180 175 174 172 171 172 171 172 174 174 171 170 171 174 179 183 182 183 188 183 173 166 162 161 159 157 160 159 157 156 151 147 139 138 138 129 136 130 103 86 91 132 173 177 187 194 199 203 202 204 210 219 223 219 227 226 198 102 76 75 89 83 72 62 50 84 175 167 157 147 252 272 277 275 276
170 170 172 171 174 181 181 180 182 182 181 177 173 170 170 175 180 183 184 180 174 171 172 175 180 182 181 183 183 177 171 165 161 162 164 165 166 163 159 158 156 153 149 151 150 145 146 128 84 66 81 128 156 135 143 180 191 185 186 201 212 215 217 219 227 227 226 256 281 273 252 253 305 287 318 342 336 150 136 109 89 71 50 15 331
172 172 171 170 174 179 178 175 176 177 178 177 174 170 174 185 190 188 183 178 172 169 170 174 179 177 176 179 178 174 172 168 165 165 168 171 172 166 160 164 169 169 170 171 158 144 139 114 77 54 66 103 155 147 137 153 166 161 166 191 204 202 198 206 216 219 230 256 273 272 255 245 244 247 252 269 284 250 157 124 89 66 63 52 37
173 172 169 170 173 175 175 172 170 172 173 173 173 174 180 185 180 175 174 174 173 170 170 173 177 175 177 178 175 173 172 169 169 170 170 174 177 173 172 176 181 186 190 182 159 143 137 124 102 42 51 68 119 198 167 149 156 164 172 177 189 199 197 207 220 224 238 254 261 261 257 246 243 249 249 251 256 257 241 205 106 34 22 13 8
170 171 169 171 171 172 175 172 168 168 168 169 172 178 180 175 169 170 171 173 177 176 173 175 178 179 180 178 173 173 173 174 179 181 181 183 185 185 183 183 188 191 191 178 162 162 159 154 174 125 67 70 89 201 197 180 178 180 183 181 179 194 201 214 228 232 240 253 255 254 258 252 248 251 251 252 251 247 251 251 264 301 322 320 314
167 169 169 171 170 172 176 176 172 168 167 171 176 179 178 173 170 170 172 175 178 179 179 180 181 182 182 178 175 175 175 177 184 191 193 190 189 188 184 184 189 187 187 179 169 190 223 230 222 164 95 76 89 120 174 192 200 193 188 190 187 196 205 212 223 231 241 254 256 256 258 257 256 256 256 258 255 250 251 254 267 287 309 310 308
166 168 170 170 170 172 174 176 176 171 172 179 182 179 177 176 174 171 171 176 179 180 181 181 182 186 187 183 179 178 176 174 180 191 194 192 190 187 184 189 191 188 192 186 174 189 221 220 212 178 91 82 92 100 127 156 179 183 190 201 200 211 223 225 229 234 245 256 257 254 255 259 262 261 261 262 263 264 260 260 273 289 307 313 312
164 167 170 170 171 172 173 175 175 173 178 184 184 179 178 178 176 174 173 174 179 182 181 182 183 184 190 190 183 182 184 182 182 185 189 192 192 192 194 198 196 194 198 195 194 196 201 209 207 205 22 61 71 85 118 124 145 162 192 215 214 221 234 243 242 246 255 258 253 248 252 258 260 260 260 263 266 270 265 262 280 296 311 328 333
162 166 169 171 171 170 172 176 174 174 181 183 179 177 180 181 178 178 178 177 182 184 182 187 187 185 191 194 189 189 190 188 186 184 186 190 191 196 202 201 196 197 200 200 202 194 197 210 208 208 290 357 1 57 117 123 151 166 185 219 238 244 249 252 250 255 261 260 252 246 250 254 257 259 254 256 260 264 265 252 268 300 321 360 356
162 166 168 169 170 169 173 177 174 175 180 178 177 176 176 181 180 181 183 180 183 187 185 187 191 194 198 198 193 193 191 190 190 187 189 194 192 195 201 197 191 195 199 201 205 200 197 203 203 219 260 288 325 98 125 292 213 191 128 27 284 280 274 268 263 262 261 261 257 251 252 250 253 256 249 251 252 250 256 241 244 283 353 21 8
162 165 168 169 170 170 173 175 175 178 180 178 181 179 174 179 182 182 186 185 184 188 186 187 195 199 198 198 198 199 197 196 197 194 196 203 199 200 206 203 195 196 198 203 209 202 191 189 198 239 292 303 306 186 191 289 198 194 170 203 323 38 305 279 284 277 262 258 257 255 255 252 251 251 249 253 253 251 253 241 238 258 309 8 6
164 167 169 171 172 173 175 177 178 181 182 182 184 182 176 177 182 180 182 184 182 186 187 189 197 200 196 196 196 201 202 199 201 200 205 208 203 206 210 211 208 203 204 211 213 198 179 170 186 260 324 327 315 213 190 258 211 207 225 224 22 27 243 273 308 293 262 253 257 262 261 256 254 253 254 254 254 256 257 248 239 252 295 344 353
167 169 171 174 175 177 178 179 181 183 184 183 183 185 183 180 183 182 179 179 179 184 188 190 196 201 201 199 193 195 198 198 199 200 207 209 207 208 208 214 216 207 208 211 202 190 182 175 180 252 298 318 323 168 164 226 215 225 304 297 307 300 273 299 325 303 275 258 260 270 265 261 258 254 250 249 252 257 254 247 236 236 317 342 344
170 170 172 175 177 178 180 181 184 186 185 183 182 187 190 189 190 188 183 181 182 185 190 192 197 202 203 201 195 194 194 195 196 197 204 208 210 213 211 215 215 206 209 203 191 192 205 210 207 240 262 260 292 155 137 303 253 293 312 305 318 318 316 327 280 295 315 271 287 300 266 254 250 245 243 242 252 254 244 233 224 214 78 257 305
171 171 173 176 179 180 183 184 185 188 187 184 185 190 194 196 196 193 190 188 187 186 188 193 199 201 201 199 196 195 193 194 197 201 209 210 211 213 212 214 211 203 203 196 193 203 218 221 215 225 237 237 239 197 82 26 11 339 315 298 331 353 360 354 325 319 46 257 326 350 315 263 239 239 246 236 240 247 237 212 202 208 215 255 299
171 173 175 178 180 182 184 186 188 190 189 187 189 194 197 200 200 195 191 190 189 186 187 194 200 201 200 198 195 193 193 199 206 210 216 218 213 210 209 211 204 194 196 197 197 204 218 221 217 220 231 240 237 220 206 27 15 346 333 321 324 336 348 354 350 352 37 196 310 337 349 337 245 234 242 226 216 229 222 188 176 197 216 264 300
172 175 177 179 180 182 184 186 189 189 188 190 194 196 200 205 203 193 187 186 187 188 188 194 201 202 202 202 197 191 191 200 209 213 220 224 218 211 209 210 206 199 200 203 206 214 217 214 216 227 237 239 233 223 229 254 318 320 321 331 328 328 331 335 351 350 353 32 312 303 335 351 329 254 224 199 199 209 198 175 173 197 221 257 292
174 175 178 181 181 182 185 186 188 188 188 193 196 197 201 206 204 195 190 186 185 187 188 193 199 202 204 205 201 194 192 199 207 213 220 224 223 219 214 211 212 215 212 209 216 222 213 212 226 236 233 227 225 227 230 230 255 274 283 308 318 317 313 309 318 329 322 311 323 314 340 360 356 335 305 183 195 204 191 179 191 207 219 269 318